Temp
3 3 3 4 3 3 3 3 4 4 5 5 5 5 6 4 6 7 8 7 9 8 9 10 10 10 10 12 12 13 18 18 18 18 19 19 20 18 18 20 20 20 19 18 19
3 3 3 3 3 3 3 3 3 4 4 4 4 4 5 4 4 6 7 8 9 8 8 8 9 10 11 13 13 16 17 19 19 19 19 18 19 19 19 19 20 19 18 18 19
3 3 3 3 3 2 2 3 2 2 3 4 4 4 4 3 4 7 8 10 9 8 8 8 10 10 12 12 14 15 17 18 16 17 16 18 18 18 20 20 20 20 18 16 18
2 3 3 3 3 3 2 2 2 3 3 3 4 4 3 3 6 9 10 9 9 8 8 8 9 10 12 13 14 14 16 16 16 14 15 17 18 18 19 20 18 17 17 17 16
2 2 3 3 2 3 2 2 2 3 3 3 3 3 3 4 5 8 8 8 8 8 8 9 10 11 13 13 13 15 15 15 15 14 15 15 17 18 17 17 16 16 17 17 17
2 2 3 2 2 2 2 2 2 2 3 3 3 3 3 4 6 7 7 8 8 8 8 9 11 11 13 13 14 14 14 15 15 15 14 15 16 15 17 16 16 16 16 17 17
3 3 3 2 2 1 2 1 2 2 3 3 3 3 3 5 5 7 8 8 8 8 8 9 11 11 12 12 13 13 14 15 14 15 16 15 15 15 16 17 17 17 17 16 16
3 2 3 2 2 2 2 2 2 2 2 3 3 2 4 5 5 7 8 7 7 8 8 9 10 11 12 12 12 13 14 13 16 15 14 15 16 16 15 16 16 17 17 17 16
3 3 3 2 2 3 3 3 2 3 3 3 3 3 5 5 6 6 7 8 8 7 8 9 10 11 11 12 12 14 14 14 14 14 16 15 16 17 16 15 16 16 16 16 15
2 2 3 3 3 2 3 3 2 3 3 2 2 3 4 6 6 6 6 8 8 8 8 8 10 11 12 13 13 13 14 13 14 14 13 14 15 15 15 14 15 15 16 16 16
3 2 3 3 2 2 3 3 3 3 2 4 3 3 4 5 6 7 6 7 8 8 9 9 9 10 12 13 13 14 13 14 14 13 13 14 14 15 15 15 15 16 16 16 16
3 3 3 3 2 3 2 2 1 2 4 3 3 3 4 3 6 7 7 7 8 9 10 8 9 13 13 13 12 13 13 14 12 12 13 13 13 15 15 15 14 13 14 14 14
4 3 2 2 2 2 2 2 2 2 4 4 3 3 3 5 7 6 7 7 10 9 9 9 11 12 12 12 12 12 13 13 13 12 11 12 15 14 13 12 11 11 11 11 12
4 4 3 3 3 2 1 2 2 2 4 3 3 4 4 6 7 7 6 7 5 7 7 8 10 12 12 12 14 12 12 12 12 12 14 11 16 13 13 12 12 12 11 11 11
4 3 4 4 2 2 2 2 2 2 5 3 4 4 5 6 7 6 7 7 6 6 7 7 8 11 12 13 13 11 11 11 11 12 11 12 13 14 13 12 12 12 11 10 10
4 3 4 4 3 2 2 1 2 4 5 4 4 6 7 6 7 7 7 8 8 9 8 6 6 7 7 6 11 10 10 9 9 11 11 12 12 15 14 14 12 12 11 10 10
4 4 3 3 2 2 2 2 5 6 3 4 5 7 7 7 8 9 8 10 10 8 8 6 6 6 7 6 7 9 11 10 10 10 12 9 10 15 13 12 13 12 11 10 10
5 5 4 3 3 2 2 3 6 5 4 4 7 8 7 7 7 6 7 10 9 10 7 8 7 7 6 8 8 7 8 12 12 12 12 8 11 14 12 11 12 10 10 9 10
6 6 4 4 3 2 2 6 5 4 4 7 8 8 7 8 8 6 6 9 9 10 10 8 7 9 9 9 10 8 8 9 9 7 10 13 12 12 11 11 11 11 11 11 10
7 6 5 5 5 4 6 6 6 5 8 8 8 8 9 8 9 8 6 9 9 9 9 9 7 8 8 9 9 10 9 9 8 10 12 13 12 15 11 11 12 12 12 11 10
7 6 7 6 6 6 4 5 7 7 7 8 8 8 9 8 9 9 8 9 9 9 9 10 10 7 9 9 10 9 9 8 10 9 12 13 14 13 13 13 11 12 11 10 9
7 7 7 7 6 5 6 6 6 8 7 9 9 8 9 8 9 9 10 9 9 10 10 9 9 8 8 8 8 9 10 10 11 9 7 8 14 11 13 12 11 11 11 10 8
5 6 7 8 8 7 7 7 7 9 8 9 9 9 8 9 9 9 9 8 8 10 10 10 8 7 7 8 7 8 8 8 7 7 7 11 14 11 11 11 12 11 10 9 7
4 6 6 6 3 7 7 8 8 7 8 8 8 9 9 9 9 8 9 8 8 9 7 9 7 8 10 9 8 6 7 7 7 8 10 10 12 12 12 13 12 11 10 9 7
3 2 1 6 6 6 6 7 8 8 8 8 9 9 10 9 9 8 8 8 8 7 8 9 6 4 7 7 6 7 7 7 5 9 8 11 10 13 13 12 11 10 9 7 6
1 2 2 3 3 6 6 7 7 7 7 9 9 9 10 10 10 9 9 9 9 8 8 7 5 4 6 6 6 5 7 8 7 8 8 9 10 13 12 11 11 10 7 6 4
1 1 1 3 5 7 7 7 7 7 7 7 9 10 9 9 8 8 9 9 9 9 8 8 5 6 8 6 6 8 8 8 8 8 9 9 11 12 12 11 10 8 6 5 3
Height
1500 1497 1494 1491 1488 1486 1484 1482 1480 1479 1479 1479 1480 1480 1480 1481 1482 1483 1481 1487 1491 1494 1496 1499 1504 1508 1513 1514 1516 1516 1511 1507 1510 1512 1513 1518 1519 1521 1522 1524 1525 1525 1526 1526 1526
1495 1492 1490 1487 1484 1482 1479 1478 1476 1474 1474 1475 1476 1477 1477 1477 1477 1477 1480 1484 1489 1492 1495 1497 1501 1507 1511 1512 1514 1511 1507 1502 1506 1510 1512 1516 1516 1518 1521 1522 1523 1524 1525 1524 1525
1490 1488 1485 1482 1480 1477 1475 1474 1471 1470 1470 1470 1472 1473 1474 1474 1476 1471 1475 1480 1484 1490 1494 1498 1503 1506 1508 1510 1509 1508 1502 1504 1512 1512 1513 1515 1516 1517 1517 1520 1520 1522 1524 1524 1523
1487 1483 1479 1477 1474 1472 1470 1468 1467 1465 1465 1466 1467 1469 1470 1474 1473 1469 1469 1473 1480 1486 1492 1496 1499 1503 1504 1504 1505 1507 1506 1507 1511 1512 1514 1515 1516 1516 1517 1518 1521 1522 1523 1524 1524
1484 1480 1475 1472 1469 1467 1465 1464 1463 1462 1462 1462 1463 1465 1467 1469 1465 1465 1467 1468 1476 1482 1486 1491 1495 1498 1500 1502 1505 1504 1507 1509 1511 1512 1514 1516 1515 1515 1517 1519 1520 1521 1521 1523 1523
1481 1477 1472 1468 1465 1462 1460 1460 1459 1458 1458 1458 1459 1461 1464 1464 1461 1463 1464 1467 1470 1477 1483 1489 1492 1497 1500 1501 1502 1502 1506 1508 1510 1512 1513 1515 1516 1517 1515 1517 1518 1519 1520 1521 1521
1476 1471 1467 1463 1460 1458 1457 1456 1455 1455 1455 1455 1456 1458 1459 1457 1457 1459 1462 1463 1468 1475 1481 1486 1492 1496 1497 1502 1503 1504 1506 1507 1509 1509 1510 1513 1512 1511 1514 1514 1515 1515 1516 1517 1518
1472 1466 1461 1457 1456 1455 1454 1453 1453 1453 1453 1453 1455 1455 1454 1451 1455 1455 1460 1465 1469 1475 1482 1486 1491 1496 1498 1500 1503 1504 1505 1507 1500 1507 1510 1511 1501 1506 1509 1510 1510 1511 1511 1513 1513
1468 1462 1456 1453 1453 1452 1452 1451 1451 1449 1450 1452 1455 1455 1453 1451 1451 1454 1460 1464 1469 1475 1481 1486 1490 1493 1497 1497 1502 1499 1495 1499 1501 1503 1505 1506 1500 1502 1506 1507 1507 1507 1508 1508 1509
1465 1457 1452 1448 1448 1450 1450 1449 1448 1447 1449 1452 1454 1457 1451 1449 1451 1452 1460 1463 1468 1476 1483 1486 1488 1489 1491 1491 1489 1489 1493 1498 1498 1502 1504 1502 1500 1502 1504 1505 1504 1504 1503 1504 1504
1462 1454 1447 1442 1443 1447 1450 1450 1453 1452 1451 1451 1452 1451 1449 1448 1450 1454 1459 1464 1469 1476 1476 1482 1482 1480 1481 1486 1487 1485 1493 1493 1496 1503 1502 1499 1500 1499 1501 1500 1499 1498 1498 1498 1499
1461 1454 1447 1442 1443 1448 1450 1450 1450 1452 1452 1451 1451 1449 1448 1448 1451 1455 1459 1463 1467 1469 1474 1484 1480 1477 1482 1489 1490 1489 1491 1493 1501 1503 1502 1500 1499 1495 1495 1496 1497 1497 1496 1495 1495
1462 1458 1452 1449 1449 1450 1450 1450 1449 1450 1451 1453 1451 1448 1448 1449 1449 1457 1458 1456 1464 1469 1470 1474 1476 1480 1485 1487 1489 1491 1490 1494 1493 1501 1504 1501 1489 1492 1497 1498 1498 1497 1494 1494 1494
1464 1461 1455 1450 1452 1451 1450 1450 1450 1452 1451 1458 1454 1451 1449 1448 1452 1458 1459 1460 1471 1474 1477 1477 1477 1478 1482 1484 1484 1492 1493 1495 1498 1497 1493 1503 1486 1491 1495 1498 1498 1497 1496 1495 1495
1465 1462 1458 1452 1454 1451 1453 1451 1451 1453 1437 1462 1456 1453 1452 1453 1457 1460 1459 1459 1468 1470 1478 1481 1480 1476 1479 1481 1484 1493 1496 1498 1501 1499 1502 1499 1496 1486 1493 1495 1496 1496 1497 1496 1495
1465 1462 1460 1458 1455 1454 1452 1453 1453 1448 1445 1459 1458 1453 1452 1456 1457 1459 1459 1462 1465 1471 1478 1483 1483 1483 1489 1493 1489 1497 1499 1504 1506 1503 1504 1497 1498 1482 1487 1488 1495 1496 1496 1495 1494
1463 1462 1460 1458 1458 1456 1454 1452 1446 1444 1468 1462 1458 1453 1454 1456 1460 1461 1462 1458 1460 1473 1477 1485 1487 1489 1490 1497 1500 1497 1496 1504 1506 1508 1490 1509 1504 1476 1487 1490 1492 1494 1494 1494 1492
1462 1461 1460 1457 1456 1455 1454 1454 1445 1463 1462 1462 1458 1459 1459 1462 1466 1468 1467 1463 1465 1463 1477 1479 1490 1490 1491 1490 1494 1501 1501 1488 1486 1490 1487 1509 1493 1478 1488 1491 1492 1493 1492 1491 1490
1461 1460 1459 1456 1454 1453 1456 1450 1463 1466 1466 1460 1457 1457 1463 1461 1465 1470 1473 1466 1466 1466 1470 1481 1490 1491 1491 1491 1491 1500 1501 1500 1500 1510 1498 1480 1485 1485 1487 1490 1491 1491 1490 1489 1488
1461 1459 1458 1456 1454 1454 1454 1459 1463 1465 1463 1461 1458 1460 1457 1463 1462 1466 1473 1469 1469 1470 1472 1478 1489 1492 1493 1492 1495 1491 1497 1498 1501 1496 1485 1476 1480 1466 1484 1485 1488 1487 1486 1486 1484
1460 1459 1458 1456 1455 1455 1463 1466 1464 1464 1463 1461 1461 1460 1459 1464 1464 1464 1469 1472 1471 1473 1475 1474 1477 1498 1494 1489 1488 1497 1493 1497 1493 1497 1482 1474 1466 1472 1474 1479 1483 1483 1482 1482 1481
1461 1460 1459 1456 1458 1462 1464 1465 1465 1463 1462 1461 1462 1463 1462 1465 1466 1465 1464 1469 1472 1473 1472 1477 1480 1490 1493 1496 1496 1492 1489 1487 1484 1496 1502 1498 1471 1476 1476 1480 1482 1480 1479 1478 1478
1463 1461 1459 1457 1459 1462 1464 1463 1464 1462 1462 1461 1461 1462 1465 1465 1466 1468 1470 1473 1473 1474 1473 1476 1484 1492 1497 1498 1497 1493 1491 1493 1497 1500 1501 1484 1468 1477 1479 1479 1477 1477 1477 1476 1476
1465 1462 1460 1459 1463 1462 1463 1463 1462 1463 1463 1463 1463 1464 1464 1465 1467 1469 1470 1474 1475 1474 1474 1476 1481 1479 1471 1478 1483 1493 1489 1492 1494 1494 1483 1481 1473 1472 1475 1474 1475 1475 1474 1474 1473
1468 1471 1470 1464 1464 1465 1465 1465 1462 1461 1462 1462 1462 1461 1462 1465 1467 1469 1471 1474 1476 1476 1476 1475 1484 1491 1484 1484 1486 1486 1485 1489 1494 1485 1485 1475 1476 1470 1472 1473 1473 1473 1473 1471 1470
1473 1474 1471 1469 1468 1465 1464 1462 1462 1463 1463 1460 1460 1462 1461 1461 1462 1466 1469 1470 1469 1476 1476 1479 1487 1490 1485 1487 1488 1490 1483 1483 1485 1485 1483 1479 1474 1470 1469 1471 1471 1470 1468 1467 1468
1475 1475 1474 1470 1467 1463 1461 1462 1462 1463 1463 1462 1461 1460 1462 1464 1466 1466 1467 1468 1469 1471 1474 1477 1485 1485 1479 1487 1486 1477 1470 1473 1475 1476 1476 1477 1468 1467 1467 1468 1469 1467 1465 1466 1466
Wind_Speed
24 23 23 22 21 20 21 20 21 21 19 17 16 14 14 15 29 19 23 18 20 10 10 23 23 16 14 14 10 8 9 16 22 20 14 10 11 7 5 9 7 4 3 4 5
25 24 23 22 21 21 21 19 19 19 20 18 15 15 14 11 18 25 22 23 20 13 8 21 25 19 13 13 11 14 14 20 10 11 12 12 13 11 8 10 9 7 4 7 6
23 23 23 22 20 20 18 17 18 17 17 17 17 13 14 9 13 18 18 27 22 22 14 15 21 18 14 13 15 16 15 10 8 11 6 13 11 8 9 9 9 9 2 2 6
24 25 25 22 21 20 18 18 16 16 14 15 13 15 11 5 8 16 13 20 24 22 19 18 21 20 14 14 18 9 15 8 6 6 7 12 9 8 11 5 8 8 1 1 2
26 25 26 22 21 20 19 16 15 13 10 12 14 11 7 10 20 7 13 20 26 24 27 26 29 21 18 17 15 14 6 10 7 7 6 7 9 10 11 9 7 8 9 6 4
23 22 26 23 20 18 16 13 12 11 10 10 9 11 10 13 13 20 9 11 27 30 30 26 29 19 18 13 14 15 6 13 12 7 5 7 9 6 8 11 12 14 15 13 12
28 26 24 20 18 13 12 13 10 9 8 8 9 10 12 17 7 18 13 5 23 31 29 25 20 18 11 7 11 5 14 11 9 11 10 7 14 13 18 18 17 17 15 13 13
29 29 27 16 15 10 9 8 6 4 4 4 6 7 7 10 14 7 25 10 21 27 23 19 20 16 8 7 11 13 6 9 9 17 6 9 14 2 9 11 17 17 17 17 19
32 29 24 18 14 10 6 7 12 11 7 5 5 5 4 11 15 8 19 13 21 27 22 21 23 19 7 13 9 14 10 18 4 10 12 17 8 7 9 8 10 10 11 12 14
32 28 24 17 10 7 4 10 4 6 7 7 1 4 7 9 16 10 18 12 22 27 17 19 14 12 13 14 14 18 15 12 13 6 9 9 14 6 9 8 13 16 17 16 15
32 30 27 13 4 4 3 2 2 4 3 1 1 9 3 4 15 13 17 16 19 22 12 23 6 17 21 17 2 10 15 9 7 4 5 11 11 11 14 17 18 20 20 19 18
31 31 24 13 12 5 4 3 2 2 3 4 4 5 5 3 8 18 13 12 19 19 14 8 13 15 14 13 8 13 13 10 5 3 4 4 9 13 13 15 11 12 14 14 10
28 28 22 15 10 6 6 4 2 7 1 6 6 3 4 2 11 13 6 19 17 16 16 11 12 14 16 14 12 9 11 9 3 5 1 7 7 5 5 8 8 8 4 5 5
23 23 22 7 8 9 9 7 5 3 2 5 8 4 4 7 6 8 6 8 4 9 6 4 2 19 18 16 13 10 3 7 6 4 3 3 2 4 8 9 9 11 11 10 9
17 16 22 15 7 8 8 8 3 4 3 2 3 1 5 4 13 6 6 5 10 11 3 3 3 17 19 19 13 5 7 7 4 2 3 3 4 6 10 9 7 7 7 6 7
14 13 11 13 11 8 6 3 4 3 9 4 5 0 5 2 3 7 4 11 19 15 13 4 5 4 2 7 4 13 10 8 4 1 3 3 4 7 9 8 8 3 4 4 6
9 10 9 12 7 7 10 7 1 7 1 5 3 4 6 5 6 5 4 6 3 6 3 3 4 2 8 9 4 6 8 3 3 4 3 2 4 2 8 6 7 2 2 3 6
8 8 9 6 8 6 7 2 10 4 4 4 3 12 5 3 6 5 2 4 5 8 5 2 4 2 0 2 5 4 3 2 4 4 3 2 5 3 4 6 6 2 2 3 5
7 6 10 11 9 3 1 7 2 1 2 5 6 6 4 6 5 3 4 2 3 4 4 4 3 0 2 5 5 6 4 1 4 2 2 4 4 3 6 12 5 1 1 1 5
8 2 12 12 8 4 2 5 2 3 2 2 2 1 4 3 3 3 1 2 3 3 2 4 5 2 4 3 9 2 8 3 0 4 4 4 4 4 14 13 4 4 5 4 6
6 1 12 10 8 7 4 3 2 1 2 2 3 3 5 4 2 2 2 2 2 5 3 5 3 2 2 4 7 4 3 2 2 1 2 2 2 2 14 15 5 9 7 6 8
4 0 9 5 2 3 2 1 2 2 2 2 3 5 7 3 3 2 3 1 3 5 5 2 4 5 1 1 3 1 2 4 3 4 1 2 0 2 6 6 6 11 7 7 8
8 3 6 2 2 2 1 1 2 3 3 2 2 1 2 4 3 3 2 1 3 2 5 6 3 5 4 4 1 4 5 3 4 2 5 3 3 2 3 4 8 7 7 7 7
5 1 5 7 4 2 1 1 2 0 1 1 3 2 3 2 2 4 4 2 1 1 6 3 3 2 2 3 4 4 9 10 4 3 4 7 2 6 6 7 6 7 9 7 6
6 3 3 2 3 2 1 0 1 1 1 1 2 3 3 3 3 3 3 4 2 5 2 1 3 1 2 3 2 2 6 12 9 9 6 0 7 7 9 9 10 9 5 6 6
4 4 5 3 4 3 1 2 1 1 2 1 3 4 3 3 2 6 6 4 3 3 2 1 3 1 1 1 5 5 10 11 16 17 16 16 19 16 10 3 7 7 5 5 5
6 3 2 3 3 3 2 2 2 2 1 1 5 4 3 2 1 0 4 4 4 7 4 3 5 2 1 1 3 8 16 18 11 10 15 12 11 6 8 7 9 6 4 5 5
Wind_Direction
323 318 319 316 311 310 304 298 292 282 273 271 262 279 288 268 245 258 209 219 219 168 184 187 187 183 185 192 193 185 221 220 216 224 220 191 205 199 194 214 199 200 275 270 285
323 320 316 310 313 312 308 304 295 287 274 269 260 266 274 285 277 246 226 218 227 174 180 183 182 176 185 192 191 200 219 221 225 213 212 185 207 186 183 190 206 194 244 293 267
322 318 312 311 311 308 306 303 295 289 274 263 257 254 267 298 275 250 238 234 219 195 195 180 183 175 186 185 189 208 225 209 209 203 182 190 194 187 200 200 210 203 195 333 287
326 321 319 313 308 307 305 299 295 280 279 266 252 238 258 268 218 224 228 211 217 197 194 186 186 184 190 195 191 203 222 229 176 188 153 176 185 203 222 233 163 156 147 358 237
328 320 317 314 308 306 305 302 299 288 275 258 246 232 238 228 224 187 194 192 205 192 193 189 189 192 196 202 187 214 186 201 205 179 165 162 189 221 236 229 234 243 257 248 246
326 321 317 318 314 311 309 298 295 287 277 260 242 223 222 238 213 218 185 197 201 190 191 189 193 187 202 193 199 199 187 205 205 202 189 205 219 216 234 245 243 244 251 250 252
325 322 318 312 318 302 302 300 300 290 282 252 237 225 228 231 213 219 189 102 194 184 189 187 187 179 168 162 196 146 206 229 210 218 232 224 241 233 244 249 252 248 250 251 250
333 327 321 311 317 306 302 316 328 303 285 267 212 211 240 230 239 206 203 232 181 182 189 178 180 175 171 158 165 196 197 198 214 211 207 195 249 134 216 230 248 250 250 249 251
336 334 335 321 296 303 305 315 304 293 239 200 198 206 238 201 214 206 199 194 173 184 188 179 175 184 146 165 155 187 203 213 197 207 209 212 257 259 232 229 254 256 253 252 258
343 344 339 321 274 286 307 330 28 344 165 138 179 198 239 198 187 198 176 174 165 174 181 187 177 180 174 184 197 189 191 202 210 170 214 211 238 229 219 254 270 271 269 265 263
349 352 345 335 274 218 347 7 39 72 101 156 146 262 75 150 167 194 170 160 157 177 172 195 176 190 186 198 271 170 190 185 205 138 218 232 243 249 256 264 262 266 270 272 271
360 3 12 30 105 111 29 61 45 155 138 16 317 271 266 330 157 174 172 171 179 178 171 168 200 196 175 182 168 177 179 189 123 147 238 234 264 254 258 262 282 280 270 270 277
16 10 29 56 61 51 56 38 31 132 110 36 5 294 246 78 120 163 211 147 173 173 185 181 187 169 177 178 174 180 187 167 143 149 128 297 251 166 93 87 92 66 78 98 90
22 17 24 67 42 61 37 64 116 72 81 3 351 342 354 108 77 114 117 145 42 121 91 157 231 180 183 186 180 169 133 142 135 192 232 314 186 122 141 114 91 78 80 80 70
22 29 18 56 74 70 79 82 118 320 130 312 312 241 128 70 132 80 40 188 155 125 127 82 204 179 182 184 191 108 142 118 107 112 313 190 238 128 162 133 126 77 73 65 44
17 31 25 33 70 79 72 39 320 248 38 30 353 157 100 149 109 107 116 112 126 125 103 87 53 22 84 47 165 131 109 74 61 40 237 176 249 165 174 157 148 94 67 50 22
0 3 19 12 24 10 338 331 297 40 207 3 43 97 81 56 65 53 12 54 120 120 95 63 39 97 110 89 34 99 161 139 179 199 254 133 209 15 143 140 134 73 46 35 13
5 11 358 6 14 2 338 264 58 322 24 279 97 108 79 43 50 40 14 93 50 90 98 89 121 61 17 104 136 141 173 218 184 187 144 161 232 135 157 181 170 328 294 330 7
9 31 15 5 1 2 48 52 64 267 244 133 128 90 70 67 115 100 40 45 64 37 97 136 81 193 76 128 159 153 193 16 97 70 260 176 231 252 147 163 193 161 118 34 8
360 47 10 16 34 49 40 87 99 211 173 316 82 300 123 103 120 104 58 333 87 39 19 128 110 59 140 128 53 267 135 149 216 185 232 186 241 156 168 177 145 43 5 4 357
357 79 359 6 60 52 70 38 53 327 310 349 108 113 120 132 103 90 122 132 208 125 162 135 104 148 190 219 168 150 189 76 69 292 264 273 139 323 174 183 181 352 353 352 348
353 346 359 14 33 42 54 25 337 338 356 95 102 101 158 145 123 130 145 40 147 155 144 111 108 146 143 64 314 252 202 199 228 179 121 326 62 129 156 182 248 327 346 350 351
339 314 6 117 93 82 115 37 330 14 30 39 87 30 155 154 142 136 127 17 166 190 161 169 134 130 163 191 177 211 190 164 93 50 203 226 124 132 178 209 310 323 332 338 340
343 312 20 58 65 78 53 78 155 167 74 43 110 121 133 115 44 143 129 75 198 97 89 103 119 267 188 87 115 186 193 191 172 190 189 233 315 166 195 313 324 332 328 329 331
21 40 356 346 65 77 162 2 317 199 52 56 132 164 155 138 127 144 143 131 102 132 74 61 109 76 76 90 142 214 202 196 206 211 215 326 236 268 301 304 307 316 316 326 331
34 7 340 297 297 234 121 98 42 122 282 163 176 142 163 157 204 188 166 194 177 169 122 36 115 127 152 169 228 250 233 219 223 234 247 261 280 281 281 301 311 320 327 340 336
38 15 347 293 297 240 133 114 79 322 137 294 155 142 139 104 180 308 174 190 184 176 147 137 141 156 243 33 280 264 232 213 210 210 222 225 235 260 287 309 320 319 334 332 334